TimeCDT,TemperatureF,Dew PointF,Humidity,Sea Level PressureIn,VisibilityMPH,Wind Direction,Wind SpeedMPH,Gust SpeedMPH,PrecipitationIn,Events,Conditions,WindDirDegrees,DateUTC
12:54 AM,70.0,64.9,84,29.93,10.0,South,9.2,-,N/A,,Clear,180,2012-05-04 05:54:00
1:54 AM,69.1,64.9,87,29.92,10.0,South,10.4,-,N/A,,Clear,190,2012-05-04 06:54:00
2:54 AM,68.0,66.0,93,29.94,10.0,ENE,4.6,-,N/A,,Mostly Cloudy,60,2012-05-04 07:54:00
3:21 AM,69.8,62.6,78,29.97,10.0,Calm,Calm,-,N/A,,Overcast,0,2012-05-04 08:21:00
3:54 AM,66.9,61.0,81,29.95,10.0,NE,6.9,-,0.00,Rain,Light Rain,40,2012-05-04 08:54:00
4:54 AM,64.0,61.0,90,29.94,10.0,East,3.5,-,0.09,Rain,Light Rain,90,2012-05-04 09:54:00
5:54 AM,64.0,61.0,90,29.94,10.0,Calm,Calm,-,0.00,,Clear,0,2012-05-04 10:54:00
6:54 AM,64.9,61.0,87,29.99,10.0,NNW,15.0,-,N/A,,Mostly Cloudy,330,2012-05-04 11:54:00
7:18 AM,66.2,60.8,83,30.00,10.0,NW,10.4,-,0.00,Rain-Thunderstorm,Light Rain,320,2012-05-04 12:18:00
7:54 AM,64.0,60.1,87,29.97,7.0,Variable,4.6,-,0.06,Rain-Thunderstorm,Rain,0,2012-05-04 12:54:00
8:35 AM,64.4,60.8,88,29.89,10.0,East,9.2,-,0.04,Rain,Light Rain,90,2012-05-04 13:35:00
8:54 AM,64.0,61.0,90,29.89,10.0,NNE,5.8,-,0.04,,Clear,30,2012-05-04 13:54:00
9:54 AM,66.9,63.0,87,29.93,10.0,SSW,11.5,-,N/A,,Clear,200,2012-05-04 14:54:00
10:54 AM,70.0,63.0,78,29.95,10.0,SSW,13.8,-,N/A,,Clear,210,2012-05-04 15:54:00
11:54 AM,71.1,66.0,84,29.96,10.0,SW,13.8,21.9,N/A,,Scattered Clouds,230,2012-05-04 16:54:00
12:54 PM,75.0,68.0,79,29.86,10.0,SE,8.1,-,0.00,,Clear,140,2012-05-04 17:54:00
1:54 PM,79.0,68.0,69,29.85,10.0,NNE,6.9,-,N/A,,Clear,20,2012-05-04 18:54:00
2:54 PM,78.1,68.0,71,29.89,10.0,North,10.4,-,N/A,,Partly Cloudy,350,2012-05-04 19:54:00
3:54 PM,78.1,66.0,66,29.91,10.0,NNW,3.5,-,N/A,,Partly Cloudy,340,2012-05-04 20:54:00
4:54 PM,78.1,64.9,64,29.91,10.0,NNW,3.5,-,N/A,,Clear,330,2012-05-04 21:54:00
5:54 PM,79.0,64.9,62,29.91,10.0,Calm,Calm,-,N/A,,Clear,0,2012-05-04 22:54:00
6:54 PM,75.2,64.4,69,29.91,10.0,WSW,5.8,-,N/A,,Clear,240,2012-05-04 23:54:00
7:54 PM,73.9,62.1,66,29.90,10.0,Calm,Calm,-,N/A,,Partly Cloudy,0,2012-05-05 00:54:00
8:54 PM,69.1,63.0,81,29.90,10.0,Calm,Calm,-,N/A,,Clear,0,2012-05-05 01:54:00
9:54 PM,70.0,63.0,78,29.91,10.0,Calm,Calm,-,N/A,,Clear,0,2012-05-05 02:54:00
10:54 PM,66.9,63.0,87,29.90,10.0,North,3.5,-,N/A,,Clear,350,2012-05-05 03:54:00
11:54 PM,66.0,63.0,90,29.91,10.0,NE,6.9,-,N/A,,Clear,40,2012-05-05 04:54:00